timestamp,surface_pressure_avg,surface_temp_avg,battery_voltage,lat,long
2021-05-17 00:09:01+00:00,265.6531,6.2,13.21,47.84626,-54.09684
2021-05-17 00:19:01+00:00,269.5531,6.2,12.81,47.84626,-54.09684
2021-05-17 00:29:01+00:00,272.7297,6.21,12.81,47.84626,-54.09684
2021-05-17 00:39:01+00:00,279.5948,6.2,12.81,47.84626,-54.09684
2021-05-17 00:49:01+00:00,287.1331,6.2,12.81,47.84626,-54.09684
2021-05-17 00:59:01+00:00,292.308,6.2,12.81,47.84626,-54.09684
2021-05-17 01:09:01+00:00,296.938,5.96,12.81,47.84626,-54.09684
2021-05-17 01:19:00+00:00,304.5863,4.77,12.65,47.84626,-54.09684
2021-05-17 01:29:00+00:00,309.423,4.6,12.65,47.84626,-54.09684
2021-05-17 01:39:00+00:00,311.8914,4.6,12.65,47.84626,-54.09684
2021-05-17 01:49:00+00:00,315.3214,4.6,12.65,47.84626,-54.09684
2021-05-17 01:59:00+00:00,320.20799999999997,4.6,12.65,47.84626,-54.09684
2021-05-17 02:09:00+00:00,322.0348,4.6,12.65,47.84626,-54.09684
2021-05-17 02:19:00+00:00,322.7681,4.6,12.65,47.84626,-54.09684
2021-05-17 02:29:00+00:00,326.0146,4.5,12.65,47.84626,-54.09684
2021-05-17 02:39:00+00:00,329.5179,4.5,12.65,47.84626,-54.09684
2021-05-17 02:49:00+00:00,329.8113,4.49,12.65,47.84626,-54.09684
2021-05-17 02:59:00+00:00,332.3297,4.3,12.65,47.84626,-54.09684
2021-05-17 03:09:00+00:00,332.043,4.2,12.65,47.84626,-54.09684
2021-05-17 03:19:00+00:00,331.593,4.2,12.65,47.84626,-54.09684
2021-05-17 03:29:00+00:00,329.963,4.2,12.65,47.84626,-54.09684
2021-05-17 03:39:00+00:00,325.6896,4.11,12.65,47.84626,-54.09684
2021-05-17 03:49:00+00:00,320.6613,4.19,12.65,47.84626,-54.09684
2021-05-17 03:59:00+00:00,316.1946,4.2,12.65,47.84626,-54.09684
2021-05-17 04:09:00+00:00,313.8731,4.2,12.65,47.84626,-54.09684
2021-05-17 04:19:00+00:00,310.618,4.2,12.65,47.84626,-54.09684
2021-05-17 04:29:00+00:00,306.478,4.2,12.65,47.84626,-54.09684
2021-05-17 04:39:00+00:00,303.073,4.2,12.65,47.84626,-54.09684
2021-05-17 04:49:00+00:00,301.0747,4.2,12.65,47.84626,-54.09684
2021-05-17 04:59:00+00:00,297.3397,4.2,12.65,47.84626,-54.09684
2021-05-17 05:09:00+00:00,291.0797,4.2,12.65,47.84626,-54.09684
2021-05-17 05:19:00+00:00,285.6947,4.2,12.65,47.84626,-54.09684
2021-05-17 05:29:00+00:00,282.7647,4.2,12.65,47.84626,-54.09684
2021-05-17 05:39:00+00:00,276.4263,4.2,12.65,47.84626,-54.09684
2021-05-17 05:49:00+00:00,269.6314,4.4,12.65,47.84626,-54.09684
2021-05-17 05:59:00+00:00,264.1214,4.67,12.65,47.84626,-54.09684
2021-05-17 06:09:00+00:00,261.0747,4.68,12.65,47.84626,-54.09684
2021-05-17 06:19:00+00:00,255.3148,4.61,12.57,47.84626,-54.09684
2021-05-17 06:29:00+00:00,248.2547,5.08,12.57,47.84626,-54.09684
2021-05-17 06:39:00+00:00,241.3364,5.59,12.57,47.84626,-54.09684
2021-05-17 06:49:00+00:00,235.7081,5.74,12.57,47.84626,-54.09684
2021-05-17 06:59:00+00:00,229.3098,5.8,12.57,47.84626,-54.09684
2021-05-17 07:09:00+00:00,220.3898,5.88,12.57,47.84626,-54.09684
2021-05-17 07:19:00+00:00,213.5847,5.9,12.57,47.84626,-54.09684
2021-05-17 07:29:00+00:00,209.0547,5.9,12.57,47.84626,-54.09684
2021-05-17 07:39:00+00:00,203.1248,5.9,12.57,47.84626,-54.09684
2021-05-17 07:49:00+00:00,196.2881,5.9,12.57,47.84626,-54.09684
2021-05-17 07:59:00+00:00,191.5631,5.9,12.57,47.84626,-54.09684
2021-05-17 08:09:00+00:00,190.1947,5.9,12.57,47.84626,-54.09684
2021-05-17 08:19:00+00:00,188.1214,5.9,12.49,47.84626,-54.09684
2021-05-17 08:29:00+00:00,185.1181,5.9,12.49,47.84626,-54.09684
2021-05-17 08:39:00+00:00,184.6114,5.9,12.49,47.84626,-54.09684
2021-05-17 08:49:00+00:00,185.9664,5.9,12.49,47.84626,-54.09684
2021-05-17 08:59:00+00:00,187.8665,5.91,12.49,47.84626,-54.09684
2021-05-17 09:09:00+00:00,190.0281,5.9,12.49,47.84626,-54.09684
2021-05-17 09:19:01+00:00,193.2998,5.9,12.81,47.84626,-54.09684
2021-05-17 09:29:01+00:00,195.9648,5.9,12.81,47.84626,-54.09684
2021-05-17 09:39:01+00:00,197.623,5.9,12.81,47.84626,-54.09684
2021-05-17 09:49:01+00:00,200.6664,5.9,12.81,47.84626,-54.09684
2021-05-17 09:59:01+00:00,203.1097,5.82,12.81,47.84626,-54.09684
2021-05-17 10:09:01+00:00,203.183,5.8,12.81,47.84626,-54.09684
2021-05-17 10:19:00+00:00,204.9731,5.77,13.76,47.84626,-54.09684
2021-05-17 10:29:00+00:00,208.1798,5.7,13.76,47.84626,-54.09684
2021-05-17 10:39:00+00:00,210.0248,5.7,13.76,47.84626,-54.09684
2021-05-17 10:49:00+00:00,210.6581,5.7,13.76,47.84626,-54.09684
2021-05-17 10:59:00+00:00,212.6031,5.69,13.76,47.84626,-54.09684
2021-05-17 11:09:00+00:00,216.7765,5.62,13.76,47.84626,-54.09684
2021-05-17 11:19:01+00:00,217.8815,5.6,14.48,47.84626,-54.09684
2021-05-17 11:29:01+00:00,218.7981,5.59,14.48,47.84626,-54.09684
2021-05-17 11:39:01+00:00,222.3998,5.5,14.48,47.84626,-54.09684
2021-05-17 11:49:01+00:00,224.5098,5.5,14.48,47.84626,-54.09684
2021-05-17 11:59:01+00:00,225.5064,5.4,14.48,47.84626,-54.09684
2021-05-17 12:09:01+00:00,228.1914,5.3,14.48,47.84626,-54.09684
2021-05-17 12:19:01+00:00,233.4098,5.3,14.56,47.84626,-54.09684
2021-05-17 12:29:01+00:00,236.4431,5.28,14.56,47.84626,-54.09684
2021-05-17 12:39:01+00:00,240.9048,5.22,14.56,47.84626,-54.09684
2021-05-17 12:49:01+00:00,248.0047,5.2,14.56,47.84626,-54.09684
2021-05-17 12:59:01+00:00,254.3431,5.2,14.56,47.84626,-54.09684
2021-05-17 13:09:01+00:00,258.3214,5.2,14.56,47.84626,-54.09684
2021-05-17 13:19:00+00:00,264.2831,5.2,14.48,47.84626,-54.09684
2021-05-17 13:29:00+00:00,271.5214,5.2,14.48,47.84626,-54.09684
2021-05-17 13:39:00+00:00,274.3998,5.21,14.48,47.84626,-54.09684
2021-05-17 13:49:00+00:00,274.6729,5.6,14.48,47.84626,-54.09684
2021-05-17 13:59:00+00:00,279.2914,4.7,14.48,47.84626,-54.09684
2021-05-17 14:09:00+00:00,285.6164,4.67,14.48,47.84626,-54.09684
2021-05-17 14:19:01+00:00,286.6497,4.67,14.56,47.84626,-54.09684
2021-05-17 14:29:01+00:00,285.7947,4.66,14.56,47.84626,-54.09684
2021-05-17 14:39:01+00:00,287.9831,4.65,14.56,47.84626,-54.09684
2021-05-17 14:49:01+00:00,290.9515,4.64,14.56,47.84626,-54.09684
2021-05-17 14:59:01+00:00,291.0864,4.61,14.56,47.84626,-54.09684
2021-05-17 15:09:01+00:00,289.558,4.64,14.56,47.84626,-54.09684
2021-05-17 15:19:01+00:00,289.1964,4.66,14.24,47.84626,-54.09684
2021-05-17 15:29:01+00:00,289.9615,4.68,14.24,47.84626,-54.09684
2021-05-17 15:39:01+00:00,286.9346,4.7,14.24,47.84626,-54.09684
2021-05-17 15:49:01+00:00,283.2731,4.77,14.24,47.84626,-54.09684
2021-05-17 15:59:01+00:00,282.058,4.8,14.24,47.84626,-54.09684
2021-05-17 16:09:01+00:00,281.9964,4.9,14.24,47.84626,-54.09684
2021-05-17 16:19:01+00:00,278.0547,5.01,14.16,47.84626,-54.09684
2021-05-17 16:29:01+00:00,275.2564,5.15,14.16,47.84626,-54.09684
2021-05-17 16:39:01+00:00,273.988,5.45,14.16,47.84626,-54.09684
2021-05-17 16:49:01+00:00,272.5396,5.56,14.16,47.84626,-54.09684
2021-05-17 16:59:01+00:00,271.0697,5.6,14.16,47.84626,-54.09684
2021-05-17 17:09:01+00:00,269.4031,5.59,14.16,47.84626,-54.09684
2021-05-17 17:19:01+00:00,266.9214,5.6,14.24,47.84626,-54.09684
2021-05-17 17:29:01+00:00,264.3314,5.68,14.24,47.84626,-54.09684
2021-05-17 17:39:01+00:00,259.6864,5.7,14.24,47.84626,-54.09684
2021-05-17 17:49:01+00:00,253.1231,5.78,14.24,47.84626,-54.09684
2021-05-17 17:59:01+00:00,247.3964,5.8,14.24,47.84626,-54.09684
2021-05-17 18:09:01+00:00,243.4331,5.84,14.24,47.84626,-54.09684
2021-05-17 18:19:00+00:00,238.9364,5.85,14.08,47.84626,-54.09684
2021-05-17 18:29:00+00:00,231.7714,5.8,14.08,47.84626,-54.09684
2021-05-17 18:39:00+00:00,226.1581,5.6,14.08,47.84626,-54.09684
2021-05-17 18:49:00+00:00,224.5632,5.5,14.08,47.84626,-54.09684
2021-05-17 18:59:00+00:00,221.4231,5.39,14.08,47.84626,-54.09684
2021-05-17 19:09:00+00:00,213.5764,5.3,14.08,47.84626,-54.09684
2021-05-17 19:19:00+00:00,208.3198,5.29,14.0,47.84626,-54.09684
2021-05-17 19:29:00+00:00,206.4948,5.2,14.0,47.84626,-54.09684
2021-05-17 19:39:00+00:00,200.8531,5.2,14.0,47.84626,-54.09684
2021-05-17 19:49:00+00:00,192.9448,5.18,14.0,47.84626,-54.09684
2021-05-17 19:59:00+00:00,190.7231,5.1,14.0,47.84626,-54.09684
2021-05-17 20:09:00+00:00,188.9982,5.0,14.0,47.84626,-54.09684
2021-05-17 20:19:01+00:00,185.1631,5.0,13.92,47.84626,-54.09684
2021-05-17 20:29:01+00:00,183.4664,5.0,13.92,47.84626,-54.09684
2021-05-17 20:39:01+00:00,185.5448,4.96,13.92,47.84626,-54.09684
2021-05-17 20:49:01+00:00,185.9365,4.9,13.92,47.84626,-54.09684
2021-05-17 20:59:01+00:00,184.3381,4.9,13.92,47.84626,-54.09684
2021-05-17 21:09:01+00:00,186.5315,4.86,13.92,47.84626,-54.09684
2021-05-17 21:19:01+00:00,190.7181,4.8,13.76,47.84626,-54.09684
2021-05-17 21:29:01+00:00,191.6797,4.8,13.76,47.84626,-54.09684
2021-05-17 21:39:01+00:00,192.3515,4.8,13.76,47.84626,-54.09684
2021-05-17 21:49:01+00:00,195.8364,4.79,13.76,47.84626,-54.09684
2021-05-17 21:59:01+00:00,199.8015,4.78,13.76,47.84626,-54.09684
2021-05-17 22:09:01+00:00,201.6614,4.78,13.76,47.84626,-54.09684
2021-05-17 22:19:01+00:00,203.9531,4.78,13.6,47.84626,-54.09684
2021-05-17 22:29:01+00:00,208.4798,4.74,13.6,47.84626,-54.09684
2021-05-17 22:39:01+00:00,213.1515,4.7,13.6,47.84626,-54.09684
2021-05-17 22:49:01+00:00,216.3981,4.7,13.6,47.84626,-54.09684
2021-05-17 22:59:01+00:00,217.8565,4.7,13.6,47.84626,-54.09684
2021-05-17 23:09:01+00:00,220.4015,4.7,13.6,47.84626,-54.09684
2021-05-17 23:19:01+00:00,223.4798,4.7,13.21,47.84626,-54.09684
2021-05-17 23:29:01+00:00,226.2298,4.69,13.21,47.84626,-54.09684
2021-05-17 23:39:01+00:00,229.5147,4.69,13.21,47.84626,-54.09684
2021-05-17 23:49:01+00:00,232.3531,4.69,13.21,47.84626,-54.09684
2021-05-17 23:59:01+00:00,234.1898,4.7,13.21,47.84626,-54.09684
